Weather History for FBFT - December, 2012

Change the Weather History Date:

Friday, December 21, 2012

  Actual Average Record
Temperature  
Mean Temperature 76 °F -  
Max Temperature 89 °F 85 °F 95 °F (2003)
Min Temperature 62 °F 66 °F 59 °F (2011)
Cooling Degree Days 10    
Growing Degree Days 26 (Base 50)    
Moisture  
Dew Point 55 °F    
Average Humidity 45    
Maximum Humidity 73    
Minimum Humidity 30    
Precipitation  
Precipitation 0.00 in - - ()
Sea Level Pressure  
Sea Level Pressure 30.01 in    
Wind  
Wind Speed 8 mph ()    
Max Wind Speed 22 mph    
Max Gust Speed -    
Visibility 6.2 miles    
Events      
Averages and records for this station are not official NWS values.
T = Trace of Precipitation, MM = Missing Value Source: Averaged Metar Reports

Daily Weather History Graph

Daily Weather History Graph

Search for Another Location

Airport or City:

Trip Planner

Search our weather history database for the weather conditions in past years. The results will help you decide how hot, cold, wet, or windy it might be!

Date:

Astronomy

Dec. 21, 2012 Rise Set
Actual Time 5:25 AM CAT 6:51 PM CAT
Civil Twilight 5:00 AM CAT 7:15 PM CAT
Nautical Twilight 4:31 AM CAT 7:45 PM CAT
Astronomical Twilight 4:00 AM CAT 8:16 PM CAT
Moon 1:10 PM CAT (12/21) 12:22 AM CAT (12/21)
Length of Visible Light 14h 15m
Length of Day
13h 25m
First Quarter, 62% of the Moon is Illuminated
Dec 21
First Quarter
Dec 28
Full
Jan 5
Last Quarter
Jan 11
New
Jan 19
First Quarter

Hourly Weather History & Observations

Time (CAT) Temp. Heat Index Dew Point Humidity Pressure Visibility Wind Dir Wind Speed Gust Speed Precip Events Conditions
12:00 AM 77.0 °F - 60.8 °F 57% 29.98 in - SE 2.3 mph - N/A   Clear
1:00 AM 73.4 °F - 60.8 °F 65% 29.98 in - West 3.5 mph - N/A   Clear
2:00 AM 73.4 °F - 60.8 °F 65% 29.98 in - West 2.3 mph - N/A   Clear
3:00 AM 69.8 °F - 60.8 °F 73% 29.98 in - North 2.3 mph - N/A   Clear
4:00 AM 68.0 °F - 59.0 °F 73% 29.98 in - East 3.5 mph - N/A   Clear
5:00 AM 73.4 °F - 60.8 °F 65% 29.98 in - ESE 10.4 mph - N/A   Clear
6:00 AM 75.2 °F - 53.6 °F 47% 30.01 in - ESE 5.8 mph - N/A   Clear
7:00 AM 77.0 °F - 51.8 °F 41% 30.04 in - East 15.0 mph - N/A   Clear
8:00 AM 77 °F - 51 °F 30%  in 6 mi ESE 12.7 mph - -   Mostly Cloudy
8:00 AM 77.0 °F - 51.8 °F 41% 30.06 in - ESE 12.7 mph - N/A   Clear
9:00 AM 78.8 °F - 55.4 °F 44% 30.06 in - ESE 16.1 mph - N/A   Clear
10:00 AM 82.4 °F 82.0 °F 57.2 °F 42% 30.06 in - ESE 21.9 mph - N/A   Clear
11:00 AM 82.4 °F 81.7 °F 55.4 °F 39% 30.06 in - ESE 10.4 mph - N/A   Clear
12:00 PM 86.0 °F 84.5 °F 55.4 °F 35% 30.06 in - East 13.8 mph - N/A   Clear
2:00 PM 89.6 °F 87.7 °F 55.4 °F 31% 29.98 in 6.2 mi ESE 13.8 mph - N/A   Partly Cloudy
3:00 PM 86.0 °F - 51.8 °F 31% 29.98 in 6.2 mi ESE 15.0 mph - N/A   Partly Cloudy
4:00 PM 86.0 °F - 51.8 °F 31% 29.95 in 6.2 mi SE 12.7 mph - N/A   Partly Cloudy
5:00 PM 84.2 °F - 51.8 °F 33% 29.95 in 6.2 mi ESE 15.0 mph - N/A   Partly Cloudy
6:00 PM 82.4 °F - 51.8 °F 35% 29.98 in 6.2 mi ESE 15.0 mph - N/A   Partly Cloudy
7:00 PM 80.6 °F - 50.0 °F 34% 30.01 in 6.2 mi East 11.5 mph - N/A   Partly Cloudy
8:00 PM 78.8 °F - 50.0 °F 36% 30.01 in - ESE 8.1 mph - N/A   Clear
9:00 PM 78.8 °F - 50.0 °F 36% 30.04 in - East 8.1 mph - N/A   Clear
10:00 PM 75.2 °F - 51.8 °F 44% 30.04 in - ESE 8.1 mph - N/A   Clear
11:00 PM 75.2 °F - 51.8 °F 44% 30.04 in - East 6.9 mph - N/A   Clear